Location: Eppenbrunn
(49.1158°N, 7.5601°E)
Time: 16:04:21
(UTC+00:00)

IGS 5A - Pass Details

Date: 19 August 2020
Orbit: 583 x 588 km, 97.6° (Epoch: 26 September)

Event Time Altitude Azimuth Distance (km) Brightness Sun altitude
Exits shadow 20:57:32 25° 202° (SSW) 1,208 4.8 -19.6°
Maximum altitude 20:59:36 45° 261° (W) 807 4.3 -19.8°
Drops below altitude 10° 21:03:38 10° 335° (NNW) 1,926 7.2 -20.2°
Sets 21:05:53 0° 342° (NNW) 2,832 8.2 -20.4°
